This demonstration page uses our WeatherBlox Daily Observations layout. Learn more.

Left ArrowRight Arrow

Hourly Observations for April 14, 2016

Temp ( °F °C ) Dew Point ( °F °C ) Humidity (%) Winds ( mph kmh ) Pressure ( in mb ) Visibility ( mi km ) Precip ( " mm )
12:53 am 00:53 Mostly Clear 48 8.9 43 6.1 83 83 S 5 7 29.97 1015 10 16 0.00 0.03
1:53 am 01:53 Clear 46 7.8 42 5.6 86 86 SE 3 6 29.99 1016 10 16 0.00 0.00
2:53 am 02:53 Clear 46 7.8 41 5 83 83 Calm 30.00 1016 10 16 0.00 0.00
3:53 am 03:53 Clear 44 6.7 40 4.4 85 85 Calm 30.01 1016 10 16 0.00 0.00
4:53 am 04:53 Clear 43 6.1 39 3.9 86 86 Calm 30.03 1017 10 16 0.00 0.00
5:16 am 05:16 Mostly Clear with Mist and Fog 42 5.6 39 3.9 89 89 Calm 30.03 1017 3 5 0.00 0.00
5:53 am 05:53 Mostly Cloudy 42 5.6 38 3.3 85 85 E 3 6 30.03 1017 10 16 0.00 0.00
6:53 am 06:53 Mostly Cloudy 42 5.6 39 3.9 89 89 NNE 5 7 30.04 1017 10 16 0.00 0.00
7:01 am 07:01 Mostly Cloudy 43 6.1 40 4.4 89 89 NE 3 6 30.06 1018 10 16 0.00 0.00
7:13 am 07:13 Mostly Cloudy 43 6.1 39 3.9 86 86 Calm 30.06 1018 10 16 0.00 0.00
7:20 am 07:20 Mostly Cloudy 43 6 39 4 87 87 Calm 30.06 1018 10 16 0.00 0.00
7:42 am 07:42 Cloudy 45 7 39 4 81 81 Calm 30.06 1018 10 16 0.00 0.00
7:53 am 07:53 Cloudy 45 7.2 41 5 86 86 Calm 30.06 1018 10 16 0.00 0.00
8:10 am 08:10 Cloudy 46 8 43 6 87 87 Calm 30.06 1018 10 16 0.00 0.00
8:53 am 08:53 Cloudy 48 8.9 44 6.7 86 86 SSW 5 7 30.06 1018 10 16 0.00 0.00
9:01 am 09:01 Mostly Cloudy 48 8.9 45 7.2 89 89 SSW 5 7 30.06 1018 10 16 0.00 0.00
9:43 am 09:43 Cloudy 51 10.6 46 7.8 83 83 SSW 3 6 30.06 1018 10 16 0.00 0.00
9:53 am 09:53 Cloudy 51 10.6 46 7.8 83 83 Calm 30.06 1018 10 16 0.00 0.00
10:00 am 10:00 Cloudy 52 11 46 8 82 82 VRB 3 6 30.06 1018 10 16 0.00 0.00
10:10 am 10:10 Cloudy 52 11.1 47 8.3 83 83 Calm 30.06 1018 10 16 0.00 0.00
10:24 am 10:24 Cloudy 54 12 48 9 82 82 Calm 30.06 1018 10 16 0.00 0.00
10:53 am 10:53 Cloudy 54 12.2 48 8.9 80 80 WSW 8 13 30.06 1018 10 16 0.00 0.03
11:16 am 11:16 Cloudy 55 13 46 8 72 72 SSW 7 11 30.09 1019 10 16 0.00 0.00
11:51 am 11:51 Cloudy 55 13 46 8 72 72 W 8 13 30.06 1018 10 16 0.00 0.00
11:53 am 11:53 Cloudy 56 13.3 47 8.3 72 72 WSW 7 11 30.06 1018 10 16 0.00 0.00
12:10 pm 12:10 Cloudy 57 14 45 7 63 63 SW 10 17 30.06 1018 10 16 0.00 0.00
12:53 pm 12:53 Mostly Sunny 61 16.1 44 6.7 54 54 S 9 15 30.05 1018 10 16 0.00 0.00
1:53 pm 13:53 Cloudy 61 16.1 42 5.6 50 50 SW 10 17 30.04 1017 10 16 0.00 0.03
2:21 pm 14:21 Cloudy with Light Rain 58 14.4 45 7.2 62 62 SW 14 22 30.06 1018 3 4 0.05 1.27
2:28 pm 14:28 Mostly Cloudy 57 14 46 8 67 67 SSW 10 17 30.06 1018 10 16 0.00 0.00
2:53 pm 14:53 Mostly Cloudy 61 16.1 46 7.8 58 58 SSW 10 17 30.03 1017 10 16 0.05 1.27
3:53 pm 15:53 Mostly Cloudy 65 18.3 41 5 42 42 SW 12 19 30.02 1017 10 16 0.00 0.00
4:53 pm 16:53 Partly Cloudy 62 16.7 39 3.9 43 43 WNW 8 13 30.03 1017 10 16 0.00 0.00
5:53 pm 17:53 Sunny 61 16.1 39 3.9 44 44 WNW 8 13 30.04 1017 10 16 0.00 0.00
6:53 pm 18:53 Mostly Sunny 60 15.6 33 0.6 36 36 W 13 20 30.04 1017 10 16 0.00 0.00
7:53 pm 19:53 Clear 56 13.3 37 2.8 49 49 W 5 7 30.05 1018 10 16 0.00 0.00
8:53 pm 20:53 Clear 53 11.7 38 3.3 57 57 NW 6 9 30.07 1018 10 16 0.00 0.00
9:53 pm 21:53 Clear 52 11.1 37 2.8 57 57 SW 6 9 30.09 1019 10 16 0.00 0.00
10:53 pm 22:53 Clear 49 9.4 38 3.3 66 66 Calm 30.11 1020 10 16 0.00 0.00
11:53 pm 23:53 Clear 48 8.9 37 2.8 66 66 ENE 5 7 30.11 1020 10 16 0.00 0.00

Powered by AerisWeather